Wind_Speed
34 34 32 33 34 35 35 36 38 39 41 43 44 45 46 46 44 43 42 41 40 39 37 35 35 35 36 37 39 40 41 40 41 40 37 34 34 33 33 33 33 32 33
38 37 37 36 36 36 37 39 41 43 45 46 47 48 48 48 48 47 45 43 42 40 39 37 36 36 37 38 40 41 42 42 43 43 42 37 35 37 36 36 35 35 35
36 37 36 36 36 37 39 41 44 45 46 47 48 48 48 48 49 48 46 44 42 39 38 36 34 34 36 38 40 42 42 42 42 43 43 41 37 38 38 37 37 37 37
36 38 39 39 39 41 43 44 45 45 46 46 47 47 47 48 48 46 43 41 39 38 36 33 33 34 36 38 39 41 42 41 40 41 42 42 39 37 35 37 37 37 37
42 43 44 45 47 48 50 51 49 47 45 44 44 44 45 45 45 42 39 38 36 34 33 33 34 36 36 37 39 41 42 42 41 40 40 39 37 35 33 32 34 35 36
50 51 52 53 53 54 55 55 54 54 52 48 43 43 43 42 40 36 34 34 33 33 33 34 36 37 37 38 40 41 41 41 39 37 36 34 33 31 31 31 32 34 36
53 56 58 59 60 60 60 59 58 57 54 53 48 43 42 40 37 35 35 34 34 34 35 37 38 39 39 40 41 40 39 36 34 33 31 31 30 30 32 33 34 36 36
47 51 55 58 60 61 62 61 61 59 57 53 49 45 43 41 39 37 36 36 36 36 38 40 41 41 41 40 39 37 34 32 30 29 29 29 28 30 32 34 36 38 38
40 46 51 55 59 61 62 62 61 59 56 53 50 44 42 41 40 38 38 38 38 39 41 42 41 40 38 36 33 31 29 28 26 26 26 27 28 29 31 33 35 37 38
37 40 44 48 53 56 58 60 61 59 55 52 49 46 41 38 38 37 37 38 39 41 41 39 36 34 33 31 30 28 27 25 24 24 24 25 26 28 30 32 34 35 36
40 43 46 48 50 51 51 49 49 51 49 46 43 41 39 36 34 34 34 36 37 37 34 32 32 31 31 30 29 27 26 24 23 23 23 24 25 26 26 28 31 33 36
42 45 46 46 45 43 40 36 34 36 37 37 36 35 34 33 31 30 31 32 32 31 31 31 31 31 30 30 29 28 26 25 25 24 24 24 24 25 25 24 23 26 29
41 43 42 40 37 32 29 27 28 29 31 31 30 30 29 28 27 28 29 29 30 30 31 31 30 29 29 29 29 29 28 27 26 26 26 27 26 26 25 24 22 21 21
39 40 38 35 29 25 24 25 25 27 28 29 30 29 28 27 27 28 29 29 29 29 29 29 29 29 29 29 29 29 29 28 27 27 28 29 30 29 28 27 25 23 21
36 36 33 28 23 20 19 20 22 22 23 24 26 26 25 26 27 27 28 28 28 29 29 29 28 28 28 28 28 29 29 28 27 27 28 30 30 31 31 31 30 28 26
31 30 27 22 17 16 15 15 17 17 18 20 22 23 25 25 26 26 26 27 29 29 29 28 28 28 28 28 28 28 27 27 27 28 28 29 30 30 31 32 32 32 30
27 25 23 20 16 13 12 13 14 15 17 18 20 22 24 25 25 26 26 27 28 28 28 28 28 28 28 28 27 27 27 26 26 26 26 27 29 30 30 31 32 32 33
23 21 19 17 15 12 11 11 13 14 15 16 18 20 22 23 24 25 27 28 28 28 27 27 27 27 27 26 25 24 24 24 25 26 27 27 28 29 29 30 31 32 33
21 18 17 15 13 11 9 9 9 11 13 14 17 19 20 22 24 25 26 26 25 24 23 22 22 22 21 21 21 21 22 23 24 25 25 26 27 27 28 28 29 30 32
18 15 14 13 12 11 9 8 9 10 11 13 15 18 20 21 21 21 19 18 17 16 16 16 16 17 18 18 19 19 20 20 20 21 22 23 24 25 25 26 27 28 29
16 14 12 11 10 8 8 8 8 9 11 12 14 15 16 16 16 15 15 14 13 12 13 13 14 14 15 16 16 17 18 18 19 19 20 21 22 23 24 24 25 25 27
15 13 11 10 8 7 6 6 7 7 8 9 9 9 8 7 7 8 9 9 9 10 10 11 12 13 14 15 16 16 17 18 19 20 22 23 24 25 26 27 28 28 28
15 13 12 10 9 8 7 7 7 8 8 8 7 6 4 3 4 5 7 7 8 9 10 11 13 13 13 14 15 17 18 19 20 22 24 26 27 28 30 31 31 32 32
18 16 15 14 13 12 11 10 10 9 9 9 8 6 5 5 5 6 7 8 9 11 12 13 13 13 14 15 16 18 19 21 23 25 27 28 29 30 31 31 31 31 32
21 20 18 17 16 15 14 13 12 11 11 10 9 9 8 8 8 9 10 11 12 13 13 13 13 14 15 16 17 19 21 22 24 25 26 26 26 26 27 27 28 29 29
24 23 22 20 18 17 16 16 15 13 12 12 12 12 12 12 12 13 13 14 14 14 14 14 15 16 16 17 18 19 21 22 23 24 24 23 23 23 24 24 25 25 26
Wind_Direction
256 256 255 254 255 257 260 264 266 266 265 264 264 265 266 267 269 271 273 277 280 281 281 283 286 289 291 292 292 292 294 295 295 294 293 292 290 288 283 279 277 274 272
261 261 261 262 263 264 266 270 271 268 265 262 261 260 261 263 265 266 269 273 277 279 280 281 285 288 289 289 290 291 293 294 294 293 292 291 288 285 280 276 274 272 271
264 265 265 266 268 269 270 271 272 269 264 260 259 258 260 261 262 261 265 269 274 277 280 282 285 286 286 287 289 291 292 292 292 292 292 291 288 284 281 276 270 268 269
263 265 268 270 272 273 275 274 273 268 263 258 258 259 259 259 259 260 262 266 271 275 279 281 282 282 284 286 288 289 290 291 291 291 291 290 288 284 279 274 269 266 267
266 266 268 270 272 274 275 277 277 273 268 259 256 256 258 259 260 262 264 267 271 274 277 278 279 282 284 286 288 290 291 292 292 292 292 290 288 284 279 271 267 265 265
270 271 271 272 273 274 274 275 277 277 276 271 265 258 256 258 259 264 267 270 273 273 274 276 279 282 285 287 290 292 293 294 293 293 292 289 285 280 274 269 263 263 263
273 273 273 273 273 273 273 274 274 276 277 277 274 269 263 262 261 263 264 266 267 269 273 277 280 282 284 288 291 293 294 293 292 292 292 289 283 276 270 265 262 261 262
276 275 274 273 273 272 272 272 272 273 275 276 275 273 268 263 260 259 258 260 263 268 273 278 280 282 284 288 291 293 291 291 290 290 290 286 281 276 270 266 262 261 261
285 281 279 277 275 273 271 270 269 270 272 274 274 275 270 264 259 257 256 258 263 269 274 278 280 281 283 287 290 290 288 288 287 287 287 285 281 277 272 268 265 263 261
297 292 287 285 283 280 276 272 268 267 268 270 272 274 272 266 257 255 256 260 266 271 276 277 278 280 283 286 286 285 284 282 281 284 285 285 282 279 275 270 266 264 262
305 300 296 291 286 282 278 274 269 265 264 266 267 266 267 261 256 254 257 262 267 271 273 275 278 280 282 283 282 281 280 277 276 278 282 284 286 286 285 279 270 264 262
309 306 303 296 290 282 274 266 260 256 257 258 260 259 256 252 252 254 259 263 266 270 273 276 277 278 279 279 278 277 277 274 273 273 277 281 285 290 291 293 288 276 268
313 311 308 301 291 277 261 247 241 240 241 242 244 244 245 245 249 254 259 263 268 271 272 273 274 275 277 277 275 274 274 273 272 271 272 274 279 283 286 289 291 293 286
317 316 313 306 289 265 248 235 232 232 232 230 232 235 239 244 249 256 261 266 268 268 269 270 272 274 274 275 274 273 272 272 272 271 270 270 273 276 277 280 281 284 289
319 320 319 313 291 265 253 238 235 228 226 227 232 234 239 244 250 255 261 264 265 267 269 271 273 273 274 274 274 274 272 271 271 271 270 270 270 272 272 273 273 274 276
320 322 323 320 302 275 259 248 239 236 232 233 238 241 245 249 253 257 261 264 267 269 271 272 272 273 273 274 274 273 272 272 272 271 271 271 271 271 270 269 269 269 270
320 322 323 323 316 292 268 252 247 244 241 244 247 249 252 255 257 260 263 266 269 272 274 274 273 274 275 275 274 274 274 273 273 273 273 273 272 271 269 268 268 267 267
318 319 321 321 317 303 281 262 253 247 246 250 254 257 258 260 262 264 267 270 272 273 273 273 275 276 276 276 276 275 275 275 275 274 273 273 273 271 270 269 269 268 267
318 314 315 317 315 310 297 279 264 257 256 258 261 262 264 265 266 267 268 269 271 273 276 276 275 278 279 279 279 279 278 276 275 274 272 272 271 270 269 269 268 267 266
319 316 311 308 308 306 301 291 281 275 273 272 272 271 270 270 270 269 268 269 272 275 275 276 277 279 281 283 284 284 282 279 276 274 272 270 270 269 269 269 267 266 265
312 316 314 309 307 309 309 305 299 294 290 287 284 281 277 273 269 265 263 264 264 266 270 273 278 284 289 292 292 291 290 288 284 281 278 276 274 273 272 271 269 268 267
295 304 309 310 311 313 318 319 319 318 314 308 303 298 289 276 260 253 252 253 256 261 267 275 283 290 294 294 293 293 293 292 290 288 285 282 279 277 277 275 274 272 270
276 284 292 295 298 302 305 310 315 320 322 320 316 311 297 266 241 238 242 247 254 263 272 281 288 290 292 292 293 294 294 294 292 290 289 287 285 283 282 281 280 278 275
264 270 276 280 282 286 289 291 297 306 313 317 316 308 290 266 252 250 253 259 266 273 278 283 287 290 294 296 298 299 299 299 297 295 292 291 290 290 289 287 285 283 280
258 263 269 273 276 279 282 285 289 295 300 304 303 297 286 274 267 265 266 270 274 276 279 284 290 295 298 301 302 304 306 307 305 303 301 299 297 296 295 293 290 287 283
254 259 264 267 270 273 276 280 285 290 294 296 294 290 285 280 276 274 275 276 278 281 285 291 295 298 300 302 305 310 313 315 315 314 312 310 309 308 307 304 301 296 290
Height
5875 5875 5876 5876 5876 5876 5875 5874 5873 5872 5870 5870 5869 5867 5866 5866 5866 5866 5865 5865 5865 5864 5865 5864 5863 5862 5861 5859 5857 5856 5856 5855 5852 5852 5852 5852 5850 5848 5846 5844 5843 5843 5844
5867 5867 5867 5868 5868 5868 5867 5866 5864 5862 5860 5858 5857 5856 5855 5855 5855 5855 5855 5854 5854 5855 5855 5854 5854 5853 5852 5851 5848 5847 5847 5846 5843 5841 5841 5843 5842 5839 5837 5836 5835 5835 5835
5859 5858 5856 5856 5856 5856 5856 5855 5853 5851 5848 5847 5845 5844 5844 5844 5843 5843 5843 5844 5844 5845 5845 5844 5844 5844 5843 5842 5840 5838 5837 5836 5834 5831 5830 5830 5832 5829 5828 5826 5826 5825 5826
5850 5850 5848 5847 5847 5846 5845 5843 5841 5839 5836 5834 5833 5832 5831 5831 5831 5831 5832 5834 5834 5835 5835 5836 5836 5836 5835 5833 5832 5829 5828 5826 5825 5822 5819 5818 5818 5818 5818 5816 5816 5816 5816
5840 5840 5839 5838 5837 5836 5835 5832 5828 5826 5824 5821 5820 5820 5820 5819 5820 5821 5823 5824 5826 5826 5827 5827 5827 5827 5826 5824 5823 5820 5818 5816 5815 5812 5809 5807 5806 5806 5806 5806 5806 5806 5807
5828 5827 5827 5826 5825 5824 5822 5820 5818 5815 5812 5809 5806 5808 5809 5809 5811 5812 5814 5816 5817 5818 5818 5818 5818 5817 5816 5815 5813 5811 5808 5806 5804 5802 5800 5798 5796 5796 5795 5796 5797 5797 5797
5817 5815 5814 5813 5812 5811 5809 5807 5806 5804 5801 5800 5799 5798 5799 5800 5801 5803 5805 5806 5807 5808 5809 5809 5808 5808 5807 5806 5804 5801 5799 5797 5795 5793 5791 5789 5788 5787 5786 5787 5787 5788 5788
5806 5803 5801 5798 5797 5796 5795 5794 5793 5792 5791 5791 5790 5790 5789 5790 5791 5793 5794 5796 5798 5798 5799 5799 5798 5798 5797 5796 5794 5792 5791 5789 5787 5785 5783 5781 5779 5778 5778 5778 5778 5779 5779
5795 5790 5786 5783 5780 5779 5778 5778 5778 5778 5779 5780 5780 5779 5778 5778 5780 5782 5785 5787 5788 5788 5788 5789 5789 5788 5788 5786 5785 5783 5782 5781 5779 5778 5775 5773 5772 5770 5769 5769 5769 5769 5769
5782 5778 5773 5768 5764 5761 5759 5760 5762 5764 5766 5768 5768 5769 5769 5768 5770 5772 5775 5777 5778 5778 5779 5779 5779 5778 5778 5777 5776 5775 5774 5773 5772 5771 5769 5767 5765 5763 5762 5760 5760 5759 5760
5770 5764 5758 5753 5748 5745 5743 5743 5744 5748 5752 5755 5757 5758 5759 5760 5761 5764 5765 5767 5768 5769 5769 5769 5769 5769 5769 5769 5768 5768 5767 5766 5765 5764 5763 5761 5760 5758 5755 5753 5752 5751 5751
5758 5751 5743 5737 5732 5729 5729 5730 5732 5735 5740 5743 5746 5747 5749 5751 5753 5755 5757 5758 5759 5760 5760 5760 5760 5760 5760 5760 5760 5760 5760 5759 5758 5757 5756 5755 5754 5752 5750 5748 5745 5743 5742
5748 5740 5731 5724 5719 5717 5717 5720 5722 5725 5729 5733 5736 5737 5739 5742 5744 5747 5749 5750 5751 5751 5752 5752 5752 5752 5751 5752 5752 5752 5751 5751 5750 5749 5748 5748 5747 5746 5745 5743 5741 5738 5736
5739 5731 5723 5715 5710 5708 5708 5710 5713 5717 5720 5723 5727 5729 5731 5734 5737 5739 5741 5741 5742 5743 5743 5743 5743 5743 5743 5743 5743 5743 5742 5742 5741 5740 5740 5739 5739 5738 5738 5736 5735 5733 5732
5732 5724 5717 5710 5705 5703 5702 5704 5707 5710 5712 5715 5719 5721 5724 5727 5729 5731 5733 5734 5734 5735 5735 5735 5735 5735 5734 5734 5734 5734 5733 5733 5732 5732 5731 5730 5730 5729 5729 5728 5728 5727 5726
5726 5720 5713 5708 5704 5702 5701 5702 5704 5706 5708 5711 5713 5716 5719 5721 5723 5724 5725 5726 5726 5727 5727 5726 5726 5726 5726 5726 5726 5725 5725 5724 5724 5723 5723 5722 5721 5721 5720 5720 5719 5719 5719
5722 5717 5712 5707 5703 5701 5700 5701 5702 5704 5705 5707 5709 5711 5713 5715 5716 5717 5718 5718 5718 5718 5718 5718 5718 5718 5718 5718 5718 5717 5717 5716 5716 5715 5715 5714 5713 5712 5711 5711 5710 5710 5710
5719 5714 5710 5706 5703 5701 5699 5699 5700 5701 5702 5703 5705 5706 5707 5709 5710 5710 5711 5711 5711 5711 5710 5710 5710 5710 5710 5710 5709 5709 5709 5709 5708 5707 5707 5706 5705 5704 5703 5702 5702 5701 5701
5716 5712 5708 5705 5703 5700 5699 5698 5698 5699 5699 5700 5700 5701 5702 5702 5703 5703 5703 5703 5703 5703 5703 5703 5703 5703 5703 5703 5702 5702 5702 5701 5701 5700 5699 5698 5697 5696 5695 5694 5693 5692 5692
5714 5709 5706 5703 5701 5699 5698 5697 5696 5696 5696 5696 5696 5696 5696 5696 5696 5696 5696 5696 5697 5698 5698 5698 5698 5698 5698 5697 5696 5696 5695 5694 5694 5693 5692 5690 5689 5688 5687 5686 5685 5684 5683
5711 5707 5704 5701 5699 5697 5696 5695 5694 5694 5693 5692 5692 5691 5690 5690 5690 5690 5690 5691 5692 5693 5694 5694 5694 5693 5693 5691 5691 5690 5689 5688 5687 5686 5685 5684 5682 5681 5679 5678 5677 5676 5675
5707 5704 5702 5699 5697 5695 5694 5693 5692 5692 5691 5690 5688 5687 5686 5686 5686 5686 5687 5688 5689 5690 5690 5690 5690 5689 5688 5687 5686 5685 5684 5683 5681 5680 5678 5676 5675 5673 5672 5670 5669 5668 5667
5702 5701 5699 5697 5696 5694 5693 5692 5691 5690 5689 5688 5687 5685 5684 5684 5684 5684 5685 5685 5686 5686 5687 5687 5686 5686 5685 5684 5682 5681 5679 5677 5675 5673 5671 5668 5666 5665 5663 5662 5660 5659 5657
5696 5696 5695 5694 5693 5692 5691 5690 5689 5688 5688 5687 5685 5684 5683 5683 5683 5683 5683 5683 5683 5683 5683 5683 5682 5682 5681 5680 5678 5676 5674 5672 5669 5666 5663 5661 5658 5656 5654 5651 5650 5648 5646
5689 5689 5689 5688 5688 5687 5687 5686 5686 5685 5685 5684 5683 5683 5682 5681 5681 5681 5681 5681 5681 5680 5679 5679 5678 5677 5676 5675 5673 5671 5668 5665 5662 5659 5655 5653 5650 5648 5645 5643 5640 5638 5636
5681 5681 5681 5681 5681 5681 5682 5681 5681 5681 5680 5680 5680 5679 5679 5678 5678 5678 5678 5677 5677 5676 5676 5675 5673 5672 5671 5669 5667 5665 5662 5659 5655 5652 5648 5645 5643 5640 5638 5635 5632 5630 5628